sat.trackr.live / text

‹ back to catalog

YAOGAN-16 01C

NORAD 39013 · 2012-066C

PAYLOAD ACTIVE UNKNOWN

§ Identity

Operator
Country
PRC
Launch date
2012-11-25
Launch site
JSC
Launch vehicle
Mass (kg)
RCS (m²)
2.65

External: N2YO · Heavens-Above · Gunter

§ Orbital elements

Epoch: 2026-09-20T04:00:10.743264Z

Period
107.02 min
Inclination
63.3541°
Eccentricity
0.0443455
Mean motion
13.45513539 rev/d
Perigee alt
757.7 km
Apogee alt
1,419.9 km
Semi-major
7,466.9 km
B*
7.4748e-5
RAAN
44.1916°
Arg perigee
27.2515°
Mean anomaly
335.1043°
Rev number
67,891

§ Raw data

YAOGAN-16 01C1 39013U 12066C   26263.16679101 -.00000011  00000+0  74748-4 0  99972 39013  63.3541  44.1916 0443455  27.2515 335.1043 13.45513539678911

JSON: /api/v1/satellites/39013 · /tle

For live sub-satellite position, see the globe view (requires WebGL).

§ Visibility from observer

Set your observer location to see the next 7 days of passes ≥ 10°. The values pass through the URL so the page stays shareable.

No JS? Fill the form by hand. The geolocation button needs JavaScript.